Previsão horária em Almalyk

Hoje, 15 Junho, Terça-feira

Tempo Temperatura Precipitação Vento Pressão Humidade
00:00 +18°C° 0 mm 3 m/s 682 mmHg 46%
01:00 +18°C° 0 mm 3 m/s 682 mmHg 48%
02:00 +17°C° 0 mm 3 m/s 682 mmHg 51%
03:00 +17°C° 0 mm 3 m/s 682 mmHg 51%
04:00 +17°C° 0 mm 3 m/s 682 mmHg 52%
05:00 +16°C° 0 mm 3 m/s 682 mmHg 52%
06:00 +19°C° 0.1 mm 2 m/s 683 mmHg 46%
07:00 +23°C° 0.1 mm 1 m/s 684 mmHg 39%
08:00 +25°C° 0.1 mm 1 m/s 684 mmHg 33%
09:00 +27°C° 0 mm 2 m/s 684 mmHg 29%
10:00 +29°C° 0 mm 3 m/s 684 mmHg 26%
11:00 +30°C° 0 mm 4 m/s 684 mmHg 22%
12:00 +32°C° 0 mm 4 m/s 683 mmHg 20%
13:00 +32°C° 0 mm 5 m/s 683 mmHg 19%
14:00 +33°C° 0 mm 5 m/s 683 mmHg 17%
15:00 +33°C° 0 mm 5 m/s 683 mmHg 17%
16:00 +32°C° 0 mm 5 m/s 683 mmHg 17%
17:00 +32°C° 0 mm 5 m/s 683 mmHg 16%
18:00 +29°C° 0 mm 4 m/s 683 mmHg 20%
19:00 +26°C° 0 mm 3 m/s 683 mmHg 24%
20:00 +24°C° 0 mm 2 m/s 682 mmHg 27%
21:00 +23°C° 0 mm 2 m/s 682 mmHg 31%
22:00 +21°C° 0 mm 3 m/s 682 mmHg 35%
23:00 +20°C° 0 mm 3 m/s 682 mmHg 38%

Amanhã, 16 Junho, Quarta-feira

Tempo Temperatura Precipitação Vento Pressão Humidade
00:00 +20°C° 0 mm 3 m/s 682 mmHg 39%
01:00 +19°C° 0 mm 3 m/s 682 mmHg 39%
02:00 +19°C° 0 mm 3 m/s 682 mmHg 39%
03:00 +19°C° 0 mm 3 m/s 682 mmHg 38%
04:00 +20°C° 0 mm 3 m/s 682 mmHg 37%
05:00 +20°C° 0 mm 2 m/s 682 mmHg 36%
06:00 +23°C° 0 mm 2 m/s 683 mmHg 33%
07:00 +25°C° 0 mm 2 m/s 683 mmHg 29%
08:00 +27°C° 0 mm 1 m/s 684 mmHg 26%
09:00 +28°C° 0 mm 2 m/s 684 mmHg 24%
10:00 +29°C° 0 mm 2 m/s 684 mmHg 22%
11:00 +30°C° 0 mm 3 m/s 684 mmHg 21%
12:00 +30°C° 0 mm 3 m/s 684 mmHg 21%
13:00 +30°C° 0 mm 4 m/s 684 mmHg 21%
14:00 +30°C° 0 mm 5 m/s 684 mmHg 22%
15:00 +30°C° 0 mm 5 m/s 684 mmHg 22%
16:00 +30°C° 0 mm 4 m/s 684 mmHg 22%
17:00 +30°C° 0 mm 4 m/s 684 mmHg 22%
18:00 +28°C° 0 mm 4 m/s 684 mmHg 28%
19:00 +25°C° 0 mm 4 m/s 684 mmHg 35%
20:00 +22°C° 0 mm 3 m/s 684 mmHg 42%
21:00 +21°C° 0 mm 3 m/s 684 mmHg 43%
22:00 +20°C° 0 mm 4 m/s 684 mmHg 45%
23:00 +19°C° 0 mm 4 m/s 684 mmHg 46%

Depois de amanhã, 17 Junho, Quinta-feira

Tempo Temperatura Precipitação Vento Pressão Humidade
00:00 +19°C° 0 mm 4 m/s 683 mmHg 47%
01:00 +18°C° 0 mm 4 m/s 683 mmHg 47%
02:00 +18°C° 0 mm 4 m/s 683 mmHg 47%
03:00 +18°C° 0 mm 4 m/s 683 mmHg 46%
04:00 +18°C° 0 mm 4 m/s 683 mmHg 45%
05:00 +19°C° 0 mm 4 m/s 683 mmHg 44%
06:00 +21°C° 0 mm 3 m/s 683 mmHg 38%
07:00 +25°C° 0 mm 3 m/s 684 mmHg 32%
08:00 +28°C° 0 mm 3 m/s 684 mmHg 25%
09:00 +30°C° 0 mm 2 m/s 684 mmHg 21%
10:00 +32°C° 0 mm 2 m/s 684 mmHg 17%
11:00 +35°C° 0 mm 2 m/s 684 mmHg 13%
12:00 +35°C° 0 mm 2 m/s 684 mmHg 11%
13:00 +36°C° 0 mm 3 m/s 683 mmHg 10%
14:00 +36°C° 0 mm 4 m/s 683 mmHg 9%
15:00 +36°C° 0 mm 5 m/s 683 mmHg 9%
16:00 +35°C° 0 mm 5 m/s 683 mmHg 9%
17:00 +35°C° 0 mm 6 m/s 683 mmHg 9%
18:00 +32°C° 0 mm 5 m/s 683 mmHg 13%
19:00 +28°C° 0 mm 3 m/s 683 mmHg 18%
20:00 +25°C° 0 mm 2 m/s 683 mmHg 22%
21:00 +24°C° 0 mm 2 m/s 683 mmHg 25%
22:00 +23°C° 0 mm 2 m/s 683 mmHg 28%
23:00 +21°C° 0 mm 3 m/s 683 mmHg 31%

18 Junho, Sexta-feira

Tempo Temperatura Precipitação Vento Pressão Humidade
00:00 +20°C° 0 mm 3 m/s 683 mmHg 31%
01:00 +20°C° 0 mm 3 m/s 683 mmHg 31%
02:00 +19°C° 0 mm 3 m/s 683 mmHg 32%
03:00 +19°C° 0 mm 3 m/s 683 mmHg 32%
04:00 +19°C° 0 mm 3 m/s 683 mmHg 32%
05:00 +19°C° 0 mm 3 m/s 683 mmHg 32%
06:00 +23°C° 0 mm 2 m/s 683 mmHg 27%
07:00 +27°C° 0 mm 1 m/s 684 mmHg 23%
08:00 +30°C° 0 mm 1 m/s 684 mmHg 18%
09:00 +31°C° 0 mm 2 m/s 684 mmHg 16%
10:00 +34°C° 0 mm 3 m/s 684 mmHg 15%
11:00 +36°C° 0 mm 4 m/s 684 mmHg 13%
12:00 +36°C° 0 mm 5 m/s 684 mmHg 12%
13:00 +36°C° 0 mm 6 m/s 684 mmHg 11%
14:00 +38°C° 0 mm 7 m/s 684 mmHg 11%
15:00 +36°C° 0 mm 7 m/s 684 mmHg 10%
16:00 +36°C° 0 mm 7 m/s 684 mmHg 10%
17:00 +36°C° 0 mm 7 m/s 683 mmHg 10%
18:00 +32°C° 0 mm 5 m/s 683 mmHg 15%
19:00 +28°C° 0 mm 4 m/s 683 mmHg 21%
20:00 +25°C° 0 mm 3 m/s 683 mmHg 27%
21:00 +24°C° 0 mm 3 m/s 683 mmHg 30%
22:00 +22°C° 0 mm 3 m/s 684 mmHg 33%
23:00 +20°C° 0 mm 3 m/s 684 mmHg 35%

19 Junho, Sábado

Tempo Temperatura Precipitação Vento Pressão Humidade
00:00 +20°C° 0 mm 3 m/s 684 mmHg 36%
01:00 +20°C° 0 mm 3 m/s 684 mmHg 38%
02:00 +19°C° 0 mm 3 m/s 684 mmHg 39%
03:00 +19°C° 0 mm 3 m/s 684 mmHg 38%
04:00 +19°C° 0 mm 3 m/s 684 mmHg 38%
05:00 +19°C° 0 mm 3 m/s 684 mmHg 37%
06:00 +23°C° 0 mm 2 m/s 685 mmHg 31%
07:00 +27°C° 0 mm 2 m/s 685 mmHg 24%
08:00 +30°C° 0 mm 1 m/s 686 mmHg 18%
09:00 +31°C° 0 mm 2 m/s 686 mmHg 16%
10:00 +34°C° 0 mm 4 m/s 686 mmHg 14%
11:00 +35°C° 0 mm 6 m/s 686 mmHg 12%
12:00 +36°C° 0 mm 6 m/s 685 mmHg 12%
13:00 +36°C° 0 mm 7 m/s 685 mmHg 11%
14:00 +38°C° 0 mm 7 m/s 684 mmHg 10%
15:00 +36°C° 0 mm 7 m/s 684 mmHg 10%
16:00 +36°C° 0 mm 7 m/s 684 mmHg 11%
17:00 +36°C° 0 mm 7 m/s 683 mmHg 11%
18:00 +33°C° 0 mm 5 m/s 683 mmHg 14%
19:00 +29°C° 0 mm 4 m/s 683 mmHg 17%
20:00 +26°C° 0 mm 3 m/s 683 mmHg 20%
21:00 +24°C° 0.4 mm 3 m/s 683 mmHg 34%
22:00 +22°C° 0.4 mm 4 m/s 684 mmHg 47%
23:00 +20°C° 0.4 mm 5 m/s 685 mmHg 61%

20 Junho, Domingo

Tempo Temperatura Precipitação Vento Pressão Humidade
00:00 +19°C° 0.5 mm 4 m/s 685 mmHg 69%
01:00 +18°C° 0.5 mm 4 m/s 685 mmHg 76%
02:00 +17°C° 0.5 mm 4 m/s 685 mmHg 84%
03:00 +17°C° 0.1 mm 3 m/s 685 mmHg 83%
04:00 +17°C° 0.1 mm 3 m/s 685 mmHg 81%
05:00 +17°C° 0.1 mm 3 m/s 685 mmHg 80%
06:00 +19°C° 0.2 mm 3 m/s 685 mmHg 72%
07:00 +21°C° 0.2 mm 2 m/s 685 mmHg 63%
08:00 +23°C° 0.2 mm 2 m/s 685 mmHg 54%
09:00 +23°C° 0.5 mm 2 m/s 685 mmHg 59%
10:00 +21°C° 0.5 mm 2 m/s 685 mmHg 64%
11:00 +21°C° 0.5 mm 2 m/s 685 mmHg 69%
12:00 +21°C° 0.8 mm 3 m/s 685 mmHg 63%
13:00 +22°C° 0.8 mm 3 m/s 685 mmHg 57%
14:00 +24°C° 0.8 mm 3 m/s 685 mmHg 51%
15:00 +23°C° 0.2 mm 4 m/s 686 mmHg 48%
16:00 +22°C° 0.2 mm 4 m/s 686 mmHg 44%
17:00 +22°C° 0.2 mm 4 m/s 687 mmHg 41%
18:00 +21°C° 0.1 mm 4 m/s 687 mmHg 48%
19:00 +19°C° 0.1 mm 3 m/s 688 mmHg 56%
20:00 +18°C° 0.1 mm 2 m/s 688 mmHg 63%
21:00 +17°C° 0.2 mm 2 m/s 688 mmHg 64%
22:00 +16°C° 0.2 mm 2 m/s 689 mmHg 64%
23:00 +16°C° 0.2 mm 3 m/s 689 mmHg 65%
Mostrar mais